Location: East Guldeford
(50.9500°N, 0.7500°E)
Time: 08:30:07
(UTC+00:00)

Resurs 01 Rocket - Pass Details

Date: 12 May 2021
Orbit: 633 x 645 km, 97.9° (Epoch: 16 June)

Event Time Altitude Azimuth Distance (km) Brightness Sun altitude
Exits shadow 20:25:37 - 167° (SSE) 2,629 4.3 -7.1°
Reaches altitude 10° 20:27:03 10° 168° (SSE) 2,037 3.7 -7.3°
Maximum altitude 20:31:30 82° 255° (WSW) 657 1.7 -7.8°
Drops below altitude 10° 20:35:59 10° 344° (NNW) 2,047 5.3 -8.3°
Sets 20:38:12 0° 346° (NNW) 2,960 6.1 -8.6°
